Stations météo

Publicité
La Rochelle/Ile de Re, France (7316): Température de l'air & dewpoint: 12.01.2018 05:00:00 - 18.01.2018 05:00:00 (CET)La Rochelle/Ile de Re, France (7316): Vitesse du vent & gusts: 12.01.2018 05:00:00 - 18.01.2018 05:00:00 (CET)La Rochelle/Ile de Re, France (7316): Direction du vent: 12.01.2018 05:00:00 - 18.01.2018 05:00:00 (CET)La Rochelle/Ile de Re, France (7316): reduced air pressure: 12.01.2018 05:00:00 - 18.01.2018 05:00:00 (CET)La Rochelle/Ile de Re, France (7316): visibility: 12.01.2018 05:00:00 - 18.01.2018 05:00:00 (CET)La Rochelle/Ile de Re, France (7316): Ensoleillement: 12.01.2018 05:00:00 - 18.01.2018 05:00:00 (CET)La Rochelle/Ile de Re, France (7316): Quantités de précipitations: 12.01.2018 05:00:00 - 18.01.2018 05:00:00 (CET)
Date & Time tt [°C] td [°C] ff [km/h] ff [knt] fx [km/h] fx [knt] dd ppp [hPa] vv [km] sd [min] rr [mm]
18.01.2018 05:00:00 - - - - - - - - - - -
18.01.2018 04:00:00 10,6 7,8 34 18 59 32 WSW 1020,0 10 0 0,0
18.01.2018 03:00:00 10,6 7,3 28 15 54 29 W 1020,4 17 0 0,0
18.01.2018 02:00:00 10,0 7,9 29 16 52 28 W 1021,0 10 0 0,2
18.01.2018 01:00:00 10,6 7,1 24 13 39 21 WSW 1021,5 10 0 0,0
18.01.2018 00:00:00 9,8 6,7 26 14 40 22 WSW 1022,1 10 0 0,0
17.01.2018 23:00:00 10,1 6,8 23 12 35 19 WSW 1022,6 14 0 0,0
17.01.2018 22:00:00 10,1 7,0 16 9 33 18 WSW 1022,8 10 0 0,0
17.01.2018 21:00:00 9,1 6,0 15 8 28 15 WSW 1023,1 18 0 0,0
17.01.2018 20:00:00 8,7 6,5 15 8 22 12 W 1023,5 10 0 0,0
17.01.2018 19:00:00 8,1 6,1 15 8 44 24 W 1023,7 10 0 0,0
17.01.2018 18:00:00 8,8 5,7 21 11 45 24 W 1023,8 10 0 0,4
17.01.2018 17:00:00 9,6 4,8 29 16 42 23 W 1023,8 10 50 0,0
17.01.2018 16:00:00 10,6 5,1 29 16 45 24 WNW 1023,5 10 60 0,0
17.01.2018 15:00:00 11,1 6,0 26 14 36 19 WNW 1023,2 10 24 0,0
17.01.2018 14:00:00 10,5 5,5 22 12 39 21 WNW 1023,8 10 54 0,0
17.01.2018 13:00:00 10,3 5,1 29 16 42 23 WNW 1023,8 10 43 0,0
17.01.2018 12:00:00 9,7 4,7 30 16 53 28 NW 1023,7 19 60 0,0
17.01.2018 11:00:00 9,4 4,6 32 17 55 30 WNW 1022,8 18 53 0,0
17.01.2018 10:00:00 8,4 4,2 38 21 80 43 NW 1021,9 18 19 0,0
17.01.2018 09:00:00 9,0 4,8 37 20 57 31 WNW 1020,4 17 0 0,0
17.01.2018 08:00:00 7,7 4,1 35 19 76 41 NW 1019,6 10 0 0,0
17.01.2018 07:00:00 7,8 4,7 42 23 80 43 W 1018,6 10 0 0,2
17.01.2018 06:00:00 8,7 5,1 34 18 60 32 WNW 1017,8 10 0 0,0
17.01.2018 05:00:00 6,7 3,8 50 27 82 44 WNW 1017,4 6 0 1,0
17.01.2018 04:00:00 7,9 4,7 52 28 79 42 WNW 1016,5 9 0 0,2
17.01.2018 03:00:00 8,1 5,0 42 23 93 50 WNW 1015,7 10 0 0,2
17.01.2018 02:00:00 8,6 6,2 39 21 74 40 WNW 1014,7 10 0 0,4
17.01.2018 01:00:00 9,6 5,8 55 30 87 47 WNW 1014,2 10 0 0,2
17.01.2018 00:00:00 9,4 6,7 48 26 80 43 WNW 1013,8 8 0 0,4
16.01.2018 23:00:00 9,8 6,7 44 24 74 40 W 1013,0 10 0 0,2
16.01.2018 22:00:00 10,6 6,2 37 20 69 38 W 1012,8 10 0 0,0
16.01.2018 21:00:00 10,7 7,8 44 24 67 36 W 1012,9 10 0 0,0
16.01.2018 20:00:00 9,7 8,3 44 24 77 42 WNW 1012,6 3,1 0 1,0
16.01.2018 19:00:00 11,2 8,6 29 16 52 28 W 1012,5 10 0 0,2
16.01.2018 18:00:00 11,1 9,2 37 20 64 35 W 1012,3 10 0 0,4
16.01.2018 17:00:00 12,1 9,8 32 17 58 31 W 1012,5 11 0 0,0
16.01.2018 16:00:00 12,2 8,8 36 20 58 31 W 1012,5 17 39 0,0
16.01.2018 15:00:00 11,7 10,1 35 19 70 38 W 1013,1 10 17 0,4
16.01.2018 14:00:00 12,3 11,4 36 19 54 29 W 1013,8 5 3 0,4
16.01.2018 13:00:00 12,0 10,6 31 17 65 35 W 1014,5 10 3 1,0
16.01.2018 12:00:00 12,2 10,9 35 19 61 33 WSW 1015,0 4,9 0 0,0
16.01.2018 11:00:00 12,0 10,7 37 20 54 29 W 1014,7 12 2 0,0
16.01.2018 10:00:00 12,0 10,2 34 18 57 31 W 1014,5 7 1 0,2
16.01.2018 09:00:00 11,7 9,8 32 17 53 28 W 1014,1 12 0 0,0
16.01.2018 08:00:00 11,7 9,4 30 16 51 28 W 1013,5 11 0 0,0
16.01.2018 07:00:00 11,0 9,6 32 17 59 32 W 1013,0 12 0 0,0
16.01.2018 06:00:00 11,1 9,4 31 17 58 31 W 1012,3 10 0 0,2
16.01.2018 05:00:00 11,5 9,4 27 15 45 25 W 1012,6 14 0 0,0
16.01.2018 04:00:00 11,8 9,4 34 19 60 33 W 1012,4 18 0 0,0
16.01.2018 03:00:00 11,4 9,5 34 18 51 28 W 1012,3 20 0 0,0
16.01.2018 02:00:00 11,4 10,1 33 18 48 26 W 1012,5 17 0 0,0
16.01.2018 01:00:00 11,4 10,0 31 17 54 29 WSW 1013,0 7 0 0,0
16.01.2018 00:00:00 10,9 9,5 28 15 49 26 WSW 1013,1 10 0 0,2
15.01.2018 23:00:00 11,2 10,1 23 12 40 21 WSW 1012,9 12 0 0,2
15.01.2018 22:00:00 10,8 9,7 29 16 48 26 W 1013,2 8 0 0,4
15.01.2018 21:00:00 11,2 9,5 28 15 46 25 W 1012,5 10 0 0,2
15.01.2018 20:00:00 11,5 10,2 28 15 55 30 W 1012,4 14 0 0,0
15.01.2018 19:00:00 11,7 10,9 32 17 47 25 W 1011,5 20 0 0,0
15.01.2018 18:00:00 11,7 11,2 31 17 58 31 WSW 1011,6 6 0 0,6
15.01.2018 17:00:00 11,3 10,7 42 23 75 40 WSW 1011,6 2,6 0 0,4
15.01.2018 16:00:00 10,9 10,3 42 23 69 37 SW 1012,1 2,8 0 1,2
15.01.2018 15:00:00 10,5 9,7 39 21 63 34 SW 1012,9 4,1 0 1,4
15.01.2018 14:00:00 10,1 8,9 34 18 59 32 SW 1014,2 3,2 0 2,0
15.01.2018 13:00:00 10,8 7,7 37 20 58 32 SW 1016,2 10 0 0,2
15.01.2018 12:00:00 11,6 8,3 24 13 39 21 SW 1017,4 10 0 0,0
15.01.2018 11:00:00 11,1 8,0 22 12 37 20 SW 1017,7 10 0 0,0
15.01.2018 10:00:00 10,2 7,8 18 10 30 16 SSW 1018,0 50 0 0,0
15.01.2018 09:00:00 9,7 6,8 13 7 22 12 SSW 1018,9 10 0 0,0
15.01.2018 08:00:00 9,2 5,7 11 6 21 12 SW 1019,1 10 0 0,0
15.01.2018 07:00:00 8,7 7,6 13 7 23 13 SSW 1019,1 17 0 0,0
15.01.2018 06:00:00 8,0 7,2 13 7 21 12 S 1019,1 12 0 0,0
15.01.2018 05:00:00 7,1 6,0 11 6 19 11 SSE 1019,9 10 0 0,0
15.01.2018 04:00:00 7,0 5,8 12 6 19 10 SSE 1020,2 17 0 0,0
15.01.2018 03:00:00 7,1 5,6 9 5 18 10 SSE 1020,3 10 0 0,0
15.01.2018 02:00:00 7,3 5,8 8 4 11 6 S 1021,0 10 0 0,0
15.01.2018 01:00:00 6,7 5,3 5 3 10 5 S 1021,4 10 0 0,0
15.01.2018 00:00:00 6,6 5,1 8 4 18 10 S 1021,2 23 0 0,0
14.01.2018 23:00:00 6,1 4,6 8 4 12 6 SSE 1020,5 10 0 0,0
14.01.2018 22:00:00 6,9 5,0 10 5 16 8 SSE 1020,2 28 0 0,0
14.01.2018 21:00:00 6,8 5,3 8 4 12 6 ESE 1019,9 18 0 0,0
14.01.2018 20:00:00 6,5 4,8 10 5 11 6 E 1019,5 14 0 0,0
14.01.2018 19:00:00 7,3 6,1 2 1 8 4 N 1018,8 40 0 0,0
14.01.2018 18:00:00 8,2 5,3 2 1 15 8 W 1018,1 36 17 0,0
14.01.2018 17:00:00 9,8 5,2 11 6 17 9 SE 1016,9 10 60 0,0
14.01.2018 16:00:00 10,3 5,9 9 5 15 8 SE 1016,8 60 60 0,0
14.01.2018 15:00:00 9,4 5,8 7 4 15 8 S 1016,4 57 60 0,0
14.01.2018 14:00:00 8,8 6,1 11 6 21 12 SSE 1016,3 58 21 0,0
14.01.2018 13:00:00 7,6 5,6 11 6 22 12 ESE 1016,4 10 19 0,0
14.01.2018 12:00:00 6,8 5,3 16 9 29 16 SSE 1016,2 10 24 0,0
14.01.2018 11:00:00 7,0 5,5 17 9 28 15 SSE 1015,8 31 32 0,0
14.01.2018 10:00:00 5,6 4,7 16 9 22 12 SE 1015,4 10 0 0,0
14.01.2018 09:00:00 6,1 5,2 13 7 21 12 SSE 1014,4 31 0 0,0
14.01.2018 08:00:00 7,3 6,2 14 7 27 15 SSE 1013,6 39 0 0,0
14.01.2018 07:00:00 7,2 6,0 17 9 34 18 SSE 1013,1 40 0 0,0
14.01.2018 06:00:00 7,5 6,3 23 12 35 19 SSE 1013,1 41 0 0,0
14.01.2018 05:00:00 7,7 6,8 19 10 35 19 SSE 1013,2 16 0 0,0
14.01.2018 04:00:00 8,0 7,2 21 12 37 20 S 1013,1 16 0 0,0
14.01.2018 03:00:00 8,8 7,6 15 8 26 14 SSE 1013,0 20 0 0,0
14.01.2018 02:00:00 8,6 7,7 11 6 26 14 S 1012,8 10 0 1,0
14.01.2018 01:00:00 8,0 7,2 10 6 30 16 SE 1013,4 7 0 0,6
14.01.2018 00:00:00 6,3 5,4 17 9 27 14 SSE 1013,5 12 0 0,2
13.01.2018 23:00:00 5,9 4,5 17 9 25 13 SSE 1013,2 8 0 0,6
13.01.2018 22:00:00 6,0 3,7 17 9 25 13 SE 1013,2 20 0 0,0
13.01.2018 21:00:00 6,0 3,3 17 9 27 15 SE 1013,4 30 0 0,0
13.01.2018 20:00:00 5,9 3,2 17 9 29 15 ESE 1013,2 33 0 0,0
13.01.2018 19:00:00 6,0 3,2 20 11 29 16 ESE 1013,0 35 0 0,0
13.01.2018 18:00:00 5,9 3,1 16 9 28 15 ESE 1013,4 38 0 0,0
13.01.2018 17:00:00 6,2 3,0 16 9 26 14 SE 1013,4 38 0 0,0
13.01.2018 16:00:00 6,2 3,2 16 8 25 13 SE 1013,7 40 0 0,0
13.01.2018 15:00:00 6,2 2,8 16 9 29 16 SE 1013,8 39 0 0,0
13.01.2018 14:00:00 5,9 3,2 19 10 29 15 ESE 1014,1 32 0 0,0
13.01.2018 13:00:00 5,5 3,0 19 11 32 17 ESE 1015,2 31 0 0,0
13.01.2018 12:00:00 5,0 3,0 18 10 31 17 ESE 1016,2 10 0 0,0
13.01.2018 11:00:00 4,3 2,8 16 9 27 15 ESE 1016,7 10 0 0,0
13.01.2018 10:00:00 3,2 2,3 20 11 27 15 ESE 1016,6 13 0 0,0
13.01.2018 09:00:00 3,1 2,4 15 8 31 17 ESE 1017,1 11 0 0,0
13.01.2018 08:00:00 2,9 2,2 19 10 29 15 ESE 1017,1 10 0 0,0
13.01.2018 07:00:00 3,5 2,8 17 9 29 16 ESE 1017,4 6 0 0,0
13.01.2018 06:00:00 3,5 2,6 15 8 27 14 ESE 1017,8 7 0 0,0
13.01.2018 05:00:00 3,5 2,5 16 9 26 14 SE 1018,6 8 0 0,0
13.01.2018 04:00:00 3,8 2,8 18 10 26 14 ESE 1019,3 10 0 0,0
13.01.2018 03:00:00 4,1 3,1 18 10 29 15 ESE 1020,3 8 0 0,0
13.01.2018 02:00:00 4,0 2,8 18 10 27 15 ESE 1021,1 11 0 0,0
13.01.2018 01:00:00 4,0 2,7 17 9 24 13 ESE 1021,7 12 0 0,0
13.01.2018 00:00:00 3,9 2,4 13 7 19 10 ESE 1022,7 16 0 0,0
12.01.2018 23:00:00 3,3 2,1 13 7 17 9 E 1022,9 11 0 0,0
12.01.2018 22:00:00 3,3 2,0 9 5 11 6 ESE 1023,8 7 0 0,0
12.01.2018 21:00:00 4,9 2,9 8 4 17 9 ESE 1024,2 10 0 0,0
12.01.2018 20:00:00 6,7 3,5 11 6 18 10 SE 1024,5 26 0 0,0
12.01.2018 19:00:00 6,4 3,5 10 6 24 13 SE 1024,6 24 0 0,0
12.01.2018 18:00:00 6,1 3,3 13 7 22 12 ESE 1024,6 18 0 0,0
12.01.2018 17:00:00 6,3 3,1 13 7 21 11 E 1024,7 10 0 0,0
12.01.2018 16:00:00 6,7 3,7 8 4 16 9 E 1025,0 27 0 0,0
12.01.2018 15:00:00 6,9 3,7 9 5 14 7 ENE 1025,1 20 0 0,0
12.01.2018 14:00:00 6,9 3,7 6 3 16 9 NE 1025,5 19 0 0,0
12.01.2018 13:00:00 7,0 4,3 13 7 19 10 ENE 1026,1 10 0 0,0
12.01.2018 12:00:00 6,7 4,2 11 6 24 13 ENE 1026,7 10 35 0,0
12.01.2018 11:00:00 6,4 4,7 12 7 17 9 ENE 1026,5 17 60 0,0
12.01.2018 10:00:00 4,2 3,6 9 5 14 8 NE 1026,4 10 49 0,0
12.01.2018 09:00:00 2,8 2,1 9 5 13 7 NNE 1026,2 7 0 0,0
12.01.2018 08:00:00 2,9 2,2 9 5 12 6 NNE 1025,7 8 0 0,0
12.01.2018 07:00:00 2,9 2,2 9 5 14 8 NE 1025,5 7 0 0,0
12.01.2018 06:00:00 4,1 3,4 11 6 16 9 NE 1025,3 7 0 0,0
12.01.2018 05:00:00 4,0 3,3 9 5 13 7 N 1025,3 7 0 0,0

tt = Température de l'air
td = dewpoint
ff = Vitesse du vent
fx = gusts
dd = Direction du vent
ppp = reduced air pressure
vv = visibility
sd = Ensoleillement
rr = Quantités de précipitations

stations d'obs. à proximité